Regional Weather Roundup
Issued by NWS Green Bay, WI

Home | Current Version | Previous Version | Graphics & Text | Print | Product List | Glossary Off
Versions: 1 2 3 4 5 6 7 8 9 10 11 12 13 14 15 16 17 18 19 20 21 22 23 24 25 26 27 28 29 30 31 32 33 34 35 36 37 38 39 40 41 42 43 44 45 46 47 48 49 50

000
ASUS43 KGRB 200711
RWRGRB

NORTH-CENTRAL AND NORTHEAST WISCONSIN REGIONAL WEATHER ROUNDUP
NATIONAL WEATHER SERVICE GREEN BAY WI
200 AM CDT THU JUL 20 2017

WIZ005-009-010>012-018-019-200800-
NORTH CENTRAL WISCONSIN

CITY           SKY/WX    TMP DP  RH WIND       PRES   REMARKS
IRONWOOD       CLEAR     57  57 100 CALM      29.93F FOG
MANITOWISH WTR CLEAR     59  59 100 CALM      29.95R
ARBOR VITAE    CLEAR     63  59  87 CALM      29.95R
EAGLE RIVER    CLOUDY    62  56  79 CALM      29.94S
LAND O LAKES   CLOUDY    57  56  96 CALM      29.98R
RHINELANDER    CLOUDY    63  60  90 CALM      29.95F
PHILLIPS       CLOUDY    64  61  90 SW5       29.95R
ANTIGO         CLOUDY    63  58  86 S6        29.95F
TOMAHAWK         N/A     58  57  95 CALM      29.95F
MERRILL        CLOUDY    63  62  96 CALM      29.94F
$$

WIZ013-073-200800-
NORTHEAST WISCONSIN

CITY           SKY/WX    TMP DP  RH WIND       PRES   REMARKS
IRON MOUNTAIN  CLOUDY    64  53  67 CALM      29.93F
MARINETTE      CLOUDY    67  57  70 S5        29.93F
OCONTO         CLOUDY    67  56  68 CALM      29.92F
$$

WIZ017-030-035>037-045-200800-
CENTRAL WISCONSIN

CITY           SKY/WX    TMP DP  RH WIND       PRES   REMARKS
MEDFORD        CLOUDY    65  63  90 SW5       29.95F
WAUSAU         CLOUDY    68  64  87 SW10      29.93S
MOSINEE        CLOUDY    66  64  94 SW9       29.97F
MARSHFIELD     LGT RAIN  67  64  90 SW7       29.93F
WISC RAPIDS    RAIN      67  66  97 SW9       29.97F
STEVENS POINT  LGT RAIN  66  66 100 SW12G17   29.97S
WAUPACA        DRIZZLE   71  68  89 W13G22    29.96S
SHAWANO        CLOUDY    69  54  60 SW3       29.94R
CLINTONVILLE   CLOUDY    66  57  72 SW3       29.94S
WAUTOMA        LGT RAIN  68  66  93 SW13      29.98F
$$

WIZ038-039-048-051-200800-
FOX VALLEY

CITY           SKY/WX    TMP DP  RH WIND       PRES   REMARKS
NWS GREEN BAY  CLOUDY    67  60  78 S3        29.94F
APPLETON       DRIZZLE   70  64  83 W12       29.95R
OSHKOSH        RAIN      71  67  87 SW12G20   29.93F
FOND DU LAC    LGT RAIN  69  65  86 CALM      30.00S
$$

WIZ022-050-052-200800-
EAST CENTRAL WISCONSIN

CITY           SKY/WX    TMP DP  RH WIND       PRES   REMARKS
EPHRAIM        FAIR      65  58  78 S7        29.92F
WASHINGTON ISL FAIR      63  58  85 CALM      29.92S
STURGEON BAY     N/A     67  58  72 S8        29.94F
MANITOWOC      LGT RAIN  68  60  75 E7        29.93F
SHEBOYGAN      LGT RAIN  71  67  87 W8        29.97S
$$

LMZ563-521-522-541>543-200800-
LAKESHORE

STATION/POSITION TIME  TEMP    WIND        PRES    VSBY  WAVE
                       AIR SEA DIR/SP/G                  HT/PER
                 (UTC) (F)     (DEG/KT/KT) (MB)    (MI)  (FT/S)
SHEBOYGAN LKSHOR 0700   72     350/  6/  8 1014.3S
KEWAUNEE LKSHORE 0648   70     230/  7/ 11 1013.0F
NORTHPORT PIER   0640   68     160/  7/ 10 1013.5S
N MID LAKE BUOY  0650   68 65  140/  6/  8 1013.6F         0
S GREEN BAY BUOY 0700   71 71  200/ 12/ 14 1013.2F
SISTER BAY LKSHO 0702   66     140/  5/  7   N/A
CHAMBERS ISLAND  0640   67     160/  3/  5 1012.5F
MENOMINEE LKSHOR 0648   71     180/  8/ 10 1013.0F
$$




USA.gov is the U.S. government's official web portal to all federal, state and local government web resources and services.